Regional Weather Roundup
Issued by NWS

Home | Current Version | Previous Version | Graphics & Text | Print | Product List | Glossary On
Versions: 1 2 3 4 5 6 7 8 9 10 11 12 13 14 15 16 17 18 19 20 21 22 23 24 25 26 27 28 29 30 31 32 33 34 35 36 37 38 39 40 41 42 43 44 45 46 47 48 49 50
000
ASUS44 KMEG 221810
RWRTN
TENNESSEE HOURLY STATE WEATHER ROUNDUP
NATIONAL WEATHER SERVICE MEMPHIS TN
100 PM CDT WED OCT 22 2014

TNZ002-004-019-021-049-052-054-088>092-221900-
WEST TENNESSEE

CITY           SKY/WX    TMP DP  RH WIND       PRES   REMARKS
MEMPHIS INTL   FAIR      65  41  41 E14G22    30.22F
NWS MEMPHIS      N/A     63 N/A N/A MISG        N/A
JACKSON        FAIR      64  42  44 NE9       30.23F
DYERSBURG      FAIR      63  37  39 NE7       30.26F
UNION CITY     SUNNY     61  43  51 NE7       30.25F
PARIS          SUNNY     59  41  51 N9        30.26F
LEXINGTON      SUNNY     61  41  48 NE8       30.22F
SAVANNAH       SUNNY     64  43  45 N5        30.22F
$$

TNZ008-025-027-028-033-062-065-066-221900-
NORTH MIDDLE TENNESSEE

CITY           SKY/WX    TMP DP  RH WIND       PRES   REMARKS
NASHVILLE      SUNNY     60  40  47 N13       30.24F
CLARKSVILLE    SUNNY     60  41  49 VRB7      30.26F
SMYRNA         SUNNY     62  41  46 NE10      30.25F
COOKEVILLE     SUNNY     57  43  58 NE7       30.21F
CROSSVILLE     SUNNY     55  37  50 NE8       30.21F
$$

TNZ061-075-076-078-094-096-097-221900-
SOUTH MIDDLE TENNESSEE

CITY           SKY/WX    TMP DP  RH WIND       PRES   REMARKS
FAYETTEVILLE   SUNNY     61  39  44 NE9       30.19F
TULLAHOMA      SUNNY     59  39  47 VRB6      30.21F
WINCHESTER     SUNNY     59  41  51 N8        30.20F
MCMINNVILLE    SUNNY     57  43  58 CALM      30.21F
COLUMBIA       SUNNY     63  43  48 NE7       30.21F
SHELBYVILLE    SUNNY     61  43  51 N10       30.22F
$$

TNZ017-018-042-046-047-221900-
NORTHEAST TENNESSEE

CITY           SKY/WX    TMP DP  RH WIND       PRES   REMARKS
TRI CITIES     PTSUNNY   55  42  61 N9        30.19F
ELIZABETHTON   CLOUDY    48  37  66 VRB7      30.18F
$$

TNZ012-013-036-069-073-074-221900-
CENTRAL EAST TENNESSEE

CITY           SKY/WX    TMP DP  RH WIND       PRES   REMARKS
KNOXVILLE      MOSUNNY   58  40  51 NE7       30.19F
OAK RIDGE      SUNNY     59  39  47 MISG      30.22F
GATLINBURG     PTCLDY    54  36  50 NE5       30.20F
MORRISTOWN     CLEAR     55  39  54 N8        30.20F
$$

TNZ083-085-099-221900-
SOUTHEAST TENNESSEE

CITY           SKY/WX    TMP DP  RH WIND       PRES   REMARKS
CHATTANOOGA    MOSUNNY   61  41  47 NE12      30.18F
$$

SKY/WX REPORTED AS FAIR MEANS FEW OR NO CLOUDS BELOW
12 THOUSAND FEET.




USA.gov is the U.S. government's official web portal to all federal, state and local government web resources and services.